Flag for Cote d'Ivoire (Ivory Coast) Weather past 2 weeks in Abidjan, Cote d'Ivoire (Ivory Coast)

Now
77 °F

Partly cloudy.


Feels Like: 78 °F
Forecast: N/A
Wind: 9 mph from Southwest

Location: Abidjan Airport

Current Time: Sep 23, 2014 at 9:05:11 PM

Latest Report: Sep 23, 2014 at 8:30 PM


Visibility: 5 mi

Pressure: 29.89 "Hg

Humidity: 89%

Dew point: 73 °F

Location of AbidjanLocation

Historic Weather in Abidjan — Graph

°F

Abidjan temperature yesterday

Maximum temperature yesterday: 84 °F (at 12:30 PM)
Minimum temperature yesterday: 75 °F (at 12:00 AM)
Average temperature yesterday: 79 °F

Past Weeks' High & Low Weather Summary

 TemperatureHumidityPressure
High84 °F (Sep 22, 12:30 PM)100% (Sep 9, 12:30 AM)29.98 "Hg (Sep 9, 12:30 AM)
Low70 °F (Sep 20, 2:00 AM)70% (Sep 12, 1:00 PM)29.80 "Hg (Sep 12, 5:00 PM)
Average77 °F91%29.90 "Hg
* Reported Sep 8 8:00 PM — Sep 23 8:00 PM, Abidjan, Weather by CustomWeather, © 2014

Note: Actual official high and low records may vary slightly from our data, if they occured in-between our weather recording intervals... More about our weather records

Advertising

Abidjan weather history for previous 24 hours

 ConditionsComfort  
Time TempWeatherWind HumidityBarometerVisibility
8:00 PM
Sep 23
77 °FPartly cloudy.12 mph89%29.89 "Hg5 mi
7:30 PM77 °FPartly cloudy.10 mph94%29.89 "HgN/A
7:00 PM77 °FPartly cloudy.9 mph94%29.86 "HgN/A
6:30 PM79 °FPassing clouds.10 mph89%29.86 "HgN/A
6:00 PM79 °FPartly sunny.10 mph89%29.86 "HgN/A
5:30 PM79 °FBroken clouds.12 mph89%29.86 "HgN/A
5:00 PM81 °FBroken clouds.10 mph84%29.86 "HgN/A
4:30 PM82 °FScattered clouds.13 mph79%29.86 "HgN/A
4:00 PM82 °FScattered clouds.13 mph74%29.86 "HgN/A
3:30 PM82 °FBroken clouds.14 mph79%29.86 "HgN/A
3:00 PM82 °FBroken clouds.13 mph74%29.86 "HgN/A
2:30 PM82 °FBroken clouds.13 mph74%29.86 "HgN/A
2:00 PM82 °FBroken clouds.13 mph74%29.86 "HgN/A
1:30 PM84 °FBroken clouds.14 mph70%29.89 "HgN/A
1:00 PM82 °FScattered clouds.13 mph74%29.89 "HgN/A
12:30 PM84 °FPassing clouds.14 mph70%29.92 "HgN/A
12:00 PM82 °FPartly sunny.13 mph74%29.92 "Hg5 mi
11:30 AM82 °FPartly sunny.10 mph74%29.95 "Hg5 mi
11:00 AM82 °FPartly sunny.12 mph74%29.95 "Hg5 mi
10:30 AM81 °FPartly sunny.10 mph79%29.95 "Hg5 mi
10:00 AM81 °FPartly sunny.10 mph79%29.95 "Hg5 mi
9:30 AM81 °FPartly sunny.9 mph79%29.95 "Hg5 mi
9:00 AM81 °FPartly sunny.9 mph79%29.95 "Hg5 mi
8:30 AM79 °FScattered clouds.8 mph89%29.95 "Hg5 mi
8:00 AM79 °FPartly sunny.8 mph89%29.95 "Hg4 mi
7:30 AM77 °FPartly sunny.6 mph94%29.92 "Hg4 mi
7:00 AM77 °FPartly sunny.3 mph94%29.92 "Hg4 mi
6:30 AM77 °FPartly sunny.5 mph94%29.92 "Hg5 mi
6:00 AM75 °FPassing clouds.2 mph100%29.92 "Hg5 mi
5:30 AM75 °FPassing clouds.2 mph100%29.89 "Hg5 mi
5:00 AM75 °FPassing clouds.3 mph100%29.89 "Hg5 mi
4:30 AM75 °FPassing clouds.1 mph100%29.89 "Hg5 mi
4:00 AM75 °FPassing clouds.No wind94%29.89 "Hg5 mi
3:30 AM73 °FPassing clouds.1 mph100%29.86 "Hg5 mi
3:00 AM75 °FPassing clouds.2 mph100%29.86 "Hg5 mi
2:30 AM75 °FPassing clouds.2 mph94%29.86 "Hg5 mi
2:00 AM75 °FPassing clouds.3 mph100%29.86 "Hg5 mi
1:30 AM75 °FPassing clouds.3 mph100%29.86 "Hg5 mi
1:00 AM77 °FPassing clouds.6 mph94%29.86 "Hg5 mi
12:30 AM77 °FPassing clouds.6 mph94%29.89 "Hg5 mi
12:00 AM77 °FPassing clouds.6 mph94%29.89 "Hg5 mi
11:30 PM
Sep 22
77 °FPassing clouds.6 mph94%29.89 "Hg5 mi
11:00 PM77 °FPassing clouds.7 mph94%29.89 "Hg5 mi
10:30 PM77 °FPassing clouds.5 mph94%29.89 "Hg5 mi
10:00 PM75 °FPassing clouds.3 mph94%29.89 "Hg5 mi
9:30 PM77 °FPassing clouds.6 mph89%29.89 "Hg5 mi
9:00 PM77 °FPassing clouds.6 mph89%29.89 "Hg5 mi
Weather by CustomWeather, © 2014

See weather overviewHow to use our weather pages